User: anonymous   Login
Location: Unspecified
(40.2450°N, 0.0000°E)
Time: 16:47:30
(UTC+00:00)
Language:

Orbcomm A8 (FM12) - Orbit

View from above orbital plane
View from above orbital plane
View from above satellite
View from above satellite

Ground track
Ground track

The orbit is defined by the following mean orbital elements,

1 25115U          26088.06729882 +.00000000 +00000-0 +43456-3 0 00008
2 25115  45.0139  82.8460 0005523 242.3189 117.7102 14.46528935    06
Epoch (UTC): 29 March 2026 01:36:54
Eccentricity: 0.0005523
inclination: 45.0139°
perigee height: 733 km
apogee height: 741 km
right ascension of ascending node: 82.8460°
argument of perigee: 242.3189°
revolutions per day: 14.46528935
mean anomaly at epoch: 117.7102°

The dashed part of the orbit path shows where the satellite is in the earth's shadow,  

DLR